GLN EIDW-LGMK

Flight info

Callsign GLN
Flight time 4h 0m
Altitude 32999
Route EIDW AMPIT AGAPU LGMK
Aircraft A320/M-V/N

Departure

Time 2026-05-09 01:40
Airport Dublin Airport (EIDW)

Arrival

Time 2026-05-09 05:40
Airport Mykonos Island National Airport (LGMK)
Time Latitude Longitude Altitude Speed Heading
2026-05-09 01:30 53.42767 -6.24863 225 ft 0 kts 31°
2026-05-09 01:31 53.42756 -6.24874 225 ft 3 kts 31°
2026-05-09 01:31 53.42741 -6.24890 225 ft 3 kts 31°
2026-05-09 01:32 53.42726 -6.24905 225 ft 2 kts 359°
2026-05-09 01:32 53.42712 -6.24897 226 ft 0 kts 300°
2026-05-09 01:35 53.42713 -6.24899 226 ft 2 kts 300°
2026-05-09 01:35 53.42743 -6.24986 225 ft 14 kts 301°
2026-05-09 01:35 53.42798 -6.25150 225 ft 18 kts 269°
2026-05-09 01:35 53.42874 -6.25299 225 ft 19 kts 336°
2026-05-09 01:36 53.42996 -6.25405 225 ft 20 kts 337°
2026-05-09 01:36 53.43131 -6.25506 225 ft 22 kts 337°
2026-05-09 01:36 53.43245 -6.25581 227 ft 16 kts 339°
2026-05-09 01:36 53.43358 -6.25649 225 ft 17 kts 342°
2026-05-09 01:37 53.43405 -6.25505 225 ft 19 kts 92°
2026-05-09 01:37 53.43394 -6.25273 225 ft 21 kts 95°
2026-05-09 01:37 53.43383 -6.25025 225 ft 22 kts 94°
2026-05-09 01:37 53.43368 -6.24757 225 ft 24 kts 97°
2026-05-09 01:38 53.43349 -6.24477 225 ft 25 kts 96°
2026-05-09 01:38 53.43333 -6.24179 224 ft 26 kts 94°
2026-05-09 01:38 53.43330 -6.23903 225 ft 19 kts 57°
2026-05-09 01:38 53.43458 -6.23834 216 ft 21 kts
2026-05-09 01:39 53.43490 -6.23942 220 ft 6 kts 245°
2026-05-09 01:39 53.43490 -6.23970 216 ft 0 kts 274°
2026-05-09 01:39 53.43490 -6.23971 216 ft 0 kts 274°
2026-05-09 01:39 53.43501 -6.24121 219 ft 40 kts 276°
2026-05-09 01:40 53.43551 -6.25037 225 ft 114 kts 275°
2026-05-09 01:40 53.43654 -6.26688 235 ft 167 kts 281°
2026-05-09 01:40 53.43769 -6.28723 736 ft 178 kts 281°
2026-05-09 01:40 53.44305 -6.30520 1485 ft 173 kts 320°
2026-05-09 01:41 53.45148 -6.31966 2268 ft 178 kts 314°
2026-05-09 01:41 53.45939 -6.33743 2417 ft 200 kts 310°
2026-05-09 01:41 53.46778 -6.35736 2646 ft 219 kts 309°
2026-05-09 01:41 53.47703 -6.37925 2924 ft 242 kts 308°
2026-05-09 01:42 53.48724 -6.40325 3366 ft 258 kts 308°
2026-05-09 01:42 53.49760 -6.42784 4177 ft 262 kts 307°
2026-05-09 01:42 53.50824 -6.45299 4984 ft 263 kts 307°
2026-05-09 01:42 53.51630 -6.48076 5688 ft 273 kts 279°
2026-05-09 01:43 53.51404 -6.51248 6381 ft 280 kts 244°
2026-05-09 01:43 53.50158 -6.53709 7135 ft 281 kts 211°
2026-05-09 01:43 53.48313 -6.54634 7843 ft 281 kts 177°
2026-05-09 01:43 53.46442 -6.53807 8584 ft 281 kts 151°
2026-05-09 01:44 53.44880 -6.51818 9089 ft 284 kts 130°
2026-05-09 01:44 53.43649 -6.49226 9185 ft 284 kts 127°
2026-05-09 01:44 53.42455 -6.46592 9193 ft 283 kts 126°
2026-05-09 01:44 53.41273 -6.43954 9193 ft 283 kts 126°
2026-05-09 01:45 53.40093 -6.41308 9191 ft 283 kts 126°
2026-05-09 01:45 53.38930 -6.38699 9193 ft 283 kts 126°
2026-05-09 01:45 53.37820 -6.35976 9192 ft 283 kts 117°
2026-05-09 01:45 53.37111 -6.32915 9298 ft 285 kts 102°
2026-05-09 01:46 53.36767 -6.29644 10044 ft 286 kts 99°
2026-05-09 01:46 53.36418 -6.26308 10462 ft 300 kts 100°
2026-05-09 01:46 53.36030 -6.22747 10604 ft 322 kts 100°
2026-05-09 01:46 53.35615 -6.18974 10916 ft 335 kts 101°
2026-05-09 01:47 53.35191 -6.15100 11439 ft 341 kts 101°
2026-05-09 01:47 53.34761 -6.11161 11961 ft 347 kts 101°
2026-05-09 01:47 53.34329 -6.07168 12535 ft 350 kts 101°
2026-05-09 01:47 53.33895 -6.03134 13088 ft 355 kts 101°
2026-05-09 01:48 53.33454 -5.99043 13617 ft 360 kts 102°
2026-05-09 01:48 53.33006 -5.94904 14142 ft 364 kts 102°
2026-05-09 01:48 53.32550 -5.90726 14683 ft 366 kts 102°
2026-05-09 01:48 53.32091 -5.86514 15128 ft 370 kts 103°
2026-05-09 01:49 53.31627 -5.82245 15567 ft 375 kts 102°
2026-05-09 01:49 53.31157 -5.77938 16075 ft 378 kts 103°
2026-05-09 01:49 53.30682 -5.73597 16545 ft 381 kts 103°
2026-05-09 01:49 53.30200 -5.69215 16995 ft 386 kts 103°
2026-05-09 01:50 53.29710 -5.64792 17490 ft 388 kts 103°
2026-05-09 01:50 53.29213 -5.60347 18004 ft 391 kts 103°
2026-05-09 01:50 53.28708 -5.55867 18463 ft 395 kts 103°
2026-05-09 01:50 53.28201 -5.51338 18890 ft 398 kts 101°
2026-05-09 01:51 53.27938 -5.46698 19172 ft 407 kts 95°
2026-05-09 01:51 53.27797 -5.41889 19296 ft 419 kts 94°
2026-05-09 01:51 53.27659 -5.36959 19421 ft 431 kts 94°
2026-05-09 01:51 53.27517 -5.31904 19545 ft 441 kts 94°
2026-05-09 01:52 53.27369 -5.26728 19668 ft 451 kts 94°
2026-05-09 01:52 53.27216 -5.21444 19792 ft 460 kts 94°
2026-05-09 01:52 53.27057 -5.16066 19939 ft 467 kts 94°
2026-05-09 01:52 53.26894 -5.10625 20210 ft 471 kts 95°
2026-05-09 01:53 53.26724 -5.05152 20528 ft 473 kts 95°
2026-05-09 01:53 53.26547 -4.99636 20840 ft 476 kts 95°
2026-05-09 01:53 53.26365 -4.94105 21169 ft 477 kts 95°
2026-05-09 01:53 53.26186 -4.88648 21580 ft 477 kts 95°
2026-05-09 01:54 53.26008 -4.83110 21991 ft 477 kts 95°
2026-05-09 01:54 53.25826 -4.77578 22390 ft 477 kts 95°
2026-05-09 01:54 53.25639 -4.72058 22788 ft 477 kts 95°
2026-05-09 01:54 53.25446 -4.66518 23173 ft 477 kts 96°
2026-05-09 01:55 53.25318 -4.62853 23451 ft 477 kts 96°
2026-05-09 01:55 53.25056 -4.55459 23950 ft 477 kts 96°
2026-05-09 01:55 53.24858 -4.49917 24317 ft 477 kts 96°
2026-05-09 01:55 53.24660 -4.44392 24698 ft 476 kts 96°
2026-05-09 01:56 53.24529 -4.40739 24966 ft 476 kts 96°
2026-05-09 01:56 53.24330 -4.35238 25368 ft 475 kts 96°
2026-05-09 01:56 53.24127 -4.29736 25773 ft 474 kts 96°
2026-05-09 01:56 53.23918 -4.24249 26188 ft 473 kts 97°
2026-05-09 01:57 53.23705 -4.18789 26607 ft 472 kts 97°
2026-05-09 01:57 53.23490 -4.13324 27034 ft 471 kts 97°
2026-05-09 01:57 53.23275 -4.07888 27437 ft 470 kts 97°
2026-05-09 01:57 53.23059 -4.02448 27874 ft 468 kts 97°
2026-05-09 01:58 53.22840 -3.97038 28307 ft 467 kts 97°
2026-05-09 01:58 53.22621 -3.91637 28738 ft 466 kts 97°
2026-05-09 01:58 53.22399 -3.86249 29171 ft 465 kts 97°
2026-05-09 01:58 53.22173 -3.80872 29598 ft 464 kts 97°
2026-05-09 01:59 53.21945 -3.75503 30055 ft 463 kts 97°
2026-05-09 01:59 53.21718 -3.70149 30453 ft 462 kts 98°
2026-05-09 01:59 53.21490 -3.64806 30822 ft 461 kts 98°
2026-05-09 01:59 53.21260 -3.59474 31194 ft 460 kts 98°
2026-05-09 02:00 53.21027 -3.54150 31540 ft 460 kts 98°
2026-05-09 02:00 53.20791 -3.48833 31879 ft 460 kts 98°
2026-05-09 02:00 53.20553 -3.43515 32226 ft 459 kts 98°
2026-05-09 02:00 53.20312 -3.38194 32581 ft 458 kts 98°
2026-05-09 02:01 53.20071 -3.32981 32984 ft 457 kts 98°
2026-05-09 02:01 53.19822 -3.27701 33154 ft 457 kts 99°
2026-05-09 02:01 53.18357 -3.17369 33179 ft 462 kts 116°
2026-05-09 02:02 53.15338 -3.07877 33179 ft 468 kts 126°
2026-05-09 02:02 53.11968 -2.98545 33171 ft 471 kts 126°
2026-05-09 02:03 53.08590 -2.89172 33175 ft 472 kts 126°
2026-05-09 02:03 53.05202 -2.79821 33159 ft 472 kts 126°
2026-05-09 02:04 53.01805 -2.70492 33154 ft 472 kts 126°
2026-05-09 02:04 52.98402 -2.61173 33151 ft 472 kts 126°
2026-05-09 02:05 52.94996 -2.51892 33141 ft 471 kts 126°
2026-05-09 02:05 52.91603 -2.42692 33147 ft 470 kts 126°
2026-05-09 02:06 52.88183 -2.33453 33152 ft 470 kts 126°
2026-05-09 02:07 52.83042 -2.19624 33159 ft 470 kts 126°
2026-05-09 02:07 52.79618 -2.10447 33165 ft 470 kts 126°
2026-05-09 02:08 52.76172 -2.01253 33167 ft 470 kts 126°
2026-05-09 02:08 52.72723 -1.92084 33138 ft 470 kts 126°
2026-05-09 02:09 52.69271 -1.82937 33141 ft 469 kts 126°
2026-05-09 02:09 52.65815 -1.73811 33144 ft 469 kts 126°
2026-05-09 02:10 52.62375 -1.64752 33125 ft 469 kts 126°
2026-05-09 02:10 52.58904 -1.55658 33120 ft 469 kts 126°
2026-05-09 02:11 52.55427 -1.46592 33103 ft 469 kts 126°
2026-05-09 02:11 52.51946 -1.37523 33104 ft 469 kts 126°
2026-05-09 02:12 52.48456 -1.28475 33115 ft 469 kts 126°
2026-05-09 02:12 52.44959 -1.19446 33128 ft 469 kts 126°
2026-05-09 02:13 52.41459 -1.10426 33156 ft 469 kts 126°
2026-05-09 02:13 52.37953 -1.01434 33158 ft 469 kts 126°
2026-05-09 02:14 52.34437 -0.92451 33139 ft 469 kts 125°
2026-05-09 02:14 52.30931 -0.83514 33141 ft 470 kts 125°
2026-05-09 02:15 52.27405 -0.74535 33136 ft 470 kts 125°
2026-05-09 02:15 52.23865 -0.65585 33168 ft 469 kts 126°
2026-05-09 02:16 52.20318 -0.56661 33168 ft 468 kts 126°
2026-05-09 02:16 52.16780 -0.47766 33166 ft 468 kts 126°
2026-05-09 02:17 52.13229 -0.38869 33164 ft 467 kts 126°
2026-05-09 02:17 52.09679 -0.30004 33159 ft 467 kts 126°
2026-05-09 02:18 52.06150 -0.21232 33156 ft 467 kts 126°
2026-05-09 02:18 52.02584 -0.12411 33153 ft 467 kts 126°
2026-05-09 02:19 51.99023 -0.03602 33152 ft 466 kts 126°
2026-05-09 02:19 51.95458 0.05170 33160 ft 466 kts 126°
2026-05-09 02:20 51.91881 0.13926 33153 ft 466 kts 126°
2026-05-09 02:20 51.88295 0.22704 33162 ft 466 kts 126°
2026-05-09 02:21 51.84708 0.31445 33163 ft 467 kts 126°
2026-05-09 02:21 51.81106 0.40181 33164 ft 467 kts 126°
2026-05-09 02:22 51.77506 0.48883 33156 ft 466 kts 126°
2026-05-09 02:22 51.73901 0.57571 33145 ft 466 kts 126°
2026-05-09 02:23 51.70313 0.66190 33142 ft 466 kts 126°
2026-05-09 02:23 51.66702 0.74861 33144 ft 466 kts 126°
2026-05-09 02:24 51.63082 0.83514 33147 ft 466 kts 126°
2026-05-09 02:24 51.59451 0.92153 33147 ft 466 kts 126°
2026-05-09 02:25 51.55815 1.00770 33130 ft 466 kts 126°
2026-05-09 02:25 51.52172 1.09386 33131 ft 466 kts 126°
2026-05-09 02:26 51.48511 1.17990 33142 ft 467 kts 126°
2026-05-09 02:26 51.44849 1.26584 33147 ft 467 kts 126°
2026-05-09 02:27 51.41186 1.35163 33141 ft 467 kts 126°
2026-05-09 02:27 51.37510 1.43735 33139 ft 467 kts 126°
2026-05-09 02:28 51.33844 1.52242 33134 ft 468 kts 126°
2026-05-09 02:28 51.30150 1.60804 33128 ft 467 kts 125°
2026-05-09 02:29 51.26634 1.68932 33140 ft 467 kts 126°
2026-05-09 02:29 51.22936 1.77451 33141 ft 467 kts 126°
2026-05-09 02:30 51.19626 1.85035 33143 ft 467 kts 126°
2026-05-09 02:30 51.16051 1.93219 33117 ft 467 kts 126°
2026-05-09 02:31 51.12377 2.01759 33109 ft 468 kts 123°
2026-05-09 02:31 51.09015 2.10647 33109 ft 469 kts 120°
2026-05-09 02:32 51.05837 2.19714 33116 ft 469 kts 120°
2026-05-09 02:32 51.02630 2.28746 33121 ft 469 kts 120°
2026-05-09 02:33 50.99360 2.37645 33128 ft 470 kts 121°
2026-05-09 02:33 50.96041 2.46574 33122 ft 470 kts 121°
2026-05-09 02:34 50.92727 2.55526 33119 ft 471 kts 121°
2026-05-09 02:34 50.89409 2.64482 33116 ft 471 kts 121°
2026-05-09 02:35 50.86077 2.73430 33118 ft 471 kts 121°
2026-05-09 02:35 50.82755 2.82329 33115 ft 471 kts 121°
2026-05-09 02:36 50.79402 2.91277 33105 ft 472 kts 120°
2026-05-09 02:36 50.76062 3.00142 33105 ft 472 kts 121°
2026-05-09 02:37 50.72693 3.09061 33099 ft 473 kts 121°
2026-05-09 02:37 50.69313 3.17982 33101 ft 473 kts 121°
2026-05-09 02:38 50.65936 3.26880 33100 ft 473 kts 120°
2026-05-09 02:38 50.62563 3.35720 33094 ft 473 kts 121°
2026-05-09 02:39 50.59159 3.44607 33089 ft 474 kts 121°
2026-05-09 02:39 50.55753 3.53491 33101 ft 474 kts 121°
2026-05-09 02:40 50.52333 3.62362 33107 ft 474 kts 121°
2026-05-09 02:40 50.48909 3.71225 33116 ft 474 kts 120°
2026-05-09 02:41 50.45472 3.80079 33105 ft 475 kts 120°
2026-05-09 02:41 50.42045 3.88869 33103 ft 476 kts 121°
2026-05-09 02:42 50.38586 3.97714 33105 ft 476 kts 121°
2026-05-09 02:42 50.35113 4.06562 33110 ft 476 kts 121°
2026-05-09 02:43 50.31644 4.15397 33103 ft 476 kts 121°
2026-05-09 02:43 50.28174 4.24208 33112 ft 476 kts 121°
2026-05-09 02:44 50.24690 4.32999 33119 ft 476 kts 121°
2026-05-09 02:44 50.21786 4.40295 33117 ft 476 kts 121°
2026-05-09 02:45 50.18294 4.49062 33116 ft 476 kts 121°
2026-05-09 02:45 50.14802 4.57817 33122 ft 476 kts 121°
2026-05-09 02:46 50.11291 4.66571 33108 ft 477 kts 121°
2026-05-09 02:46 50.07768 4.75325 33102 ft 477 kts 121°
2026-05-09 02:47 50.04235 4.84069 33101 ft 477 kts 121°
2026-05-09 02:47 50.00693 4.92807 33106 ft 477 kts 121°
2026-05-09 02:48 49.97146 5.01526 33111 ft 477 kts 121°
2026-05-09 02:48 49.93610 5.10192 33100 ft 478 kts 121°
2026-05-09 02:49 49.90040 5.18909 33099 ft 479 kts 121°
2026-05-09 02:49 49.86470 5.27627 33102 ft 479 kts 121°
2026-05-09 02:50 49.82885 5.36338 33093 ft 479 kts 121°
2026-05-09 02:50 49.79287 5.45030 33107 ft 480 kts 120°
2026-05-09 02:51 49.75694 5.53695 33096 ft 480 kts 121°
2026-05-09 02:51 49.72079 5.62389 33087 ft 481 kts 121°
2026-05-09 02:52 49.68449 5.71080 33089 ft 481 kts 121°
2026-05-09 02:52 49.64808 5.79771 33094 ft 481 kts 121°
2026-05-09 02:53 49.61168 5.88451 33110 ft 482 kts 120°
2026-05-09 02:53 49.57537 5.97068 33085 ft 483 kts 120°
2026-05-09 02:54 49.53832 6.05809 33085 ft 484 kts 120°
2026-05-09 02:54 49.50170 6.14430 33089 ft 484 kts 120°
2026-05-09 02:55 49.46482 6.23104 33092 ft 485 kts 120°
2026-05-09 02:55 49.42783 6.31775 33108 ft 485 kts 121°
2026-05-09 02:56 49.39077 6.40429 33093 ft 486 kts 121°
2026-05-09 02:56 49.35317 6.49180 33089 ft 487 kts 121°
2026-05-09 02:57 49.31606 6.57778 33075 ft 487 kts 121°
2026-05-09 02:57 49.27853 6.66457 33087 ft 488 kts 121°
2026-05-09 02:58 49.24094 6.75115 33104 ft 488 kts 121°
2026-05-09 02:58 49.20322 6.83772 33102 ft 489 kts 121°
2026-05-09 02:59 49.16542 6.92424 33106 ft 489 kts 121°
2026-05-09 02:59 49.12760 7.01059 33110 ft 489 kts 122°
2026-05-09 03:00 49.08970 7.09696 33127 ft 490 kts 122°
2026-05-09 03:00 49.05185 7.18272 33093 ft 491 kts 123°
2026-05-09 03:01 49.01350 7.26908 33092 ft 493 kts 123°
2026-05-09 03:01 48.97506 7.35563 33095 ft 494 kts 123°
2026-05-09 03:02 48.93653 7.44236 33097 ft 494 kts 123°
2026-05-09 03:02 48.89790 7.52893 33121 ft 494 kts 123°
2026-05-09 03:03 48.85913 7.61539 33120 ft 495 kts 124°
2026-05-09 03:03 48.82032 7.70162 33080 ft 495 kts 124°
2026-05-09 03:04 48.78166 7.78738 33070 ft 496 kts 124°
2026-05-09 03:04 48.74251 7.87381 33087 ft 497 kts 125°
2026-05-09 03:05 48.70319 7.96032 33070 ft 499 kts 125°
2026-05-09 03:05 48.66381 8.04676 33074 ft 499 kts 125°
2026-05-09 03:06 48.62433 8.13323 33086 ft 500 kts 125°
2026-05-09 03:06 48.58474 8.21958 33088 ft 500 kts 125°
2026-05-09 03:07 48.54509 8.30587 33102 ft 500 kts 125°
2026-05-09 03:07 48.50535 8.39206 33120 ft 500 kts 126°
2026-05-09 03:08 48.46552 8.47799 33110 ft 500 kts 126°
2026-05-09 03:08 48.42566 8.56388 33120 ft 500 kts 126°
2026-05-09 03:09 48.38580 8.64961 33131 ft 500 kts 126°
2026-05-09 03:09 48.34581 8.73512 33119 ft 500 kts 126°
2026-05-09 03:10 48.30566 8.82060 33091 ft 500 kts 127°
2026-05-09 03:10 48.26543 8.90611 33107 ft 501 kts 127°
2026-05-09 03:11 48.22505 8.99157 33104 ft 502 kts 127°
2026-05-09 03:11 48.18490 9.07648 33106 ft 503 kts 128°
2026-05-09 03:12 48.14411 9.16266 33101 ft 503 kts 128°
2026-05-09 03:12 48.10348 9.24810 33106 ft 503 kts 128°
2026-05-09 03:13 48.04228 9.37586 33077 ft 504 kts 128°
2026-05-09 03:13 48.00157 9.46067 33094 ft 505 kts 129°
2026-05-09 03:14 47.96049 9.54618 33096 ft 507 kts 129°
2026-05-09 03:14 47.91930 9.63152 33098 ft 507 kts 129°
2026-05-09 03:15 47.87812 9.71645 33108 ft 508 kts 129°
2026-05-09 03:15 47.83669 9.80166 33118 ft 508 kts 129°
2026-05-09 03:16 47.79521 9.88685 33077 ft 508 kts 129°
2026-05-09 03:16 47.75365 9.97186 33090 ft 509 kts 130°
2026-05-09 03:17 47.71182 10.05706 33102 ft 510 kts 130°
2026-05-09 03:17 47.67001 10.14207 33114 ft 510 kts 130°
2026-05-09 03:18 47.62800 10.22708 33110 ft 510 kts 130°
2026-05-09 03:18 47.58597 10.31192 33110 ft 511 kts 130°
2026-05-09 03:19 47.54388 10.39664 33109 ft 511 kts 130°
2026-05-09 03:19 47.50179 10.48122 33083 ft 510 kts 130°
2026-05-09 03:20 47.45963 10.56562 33097 ft 510 kts 130°
2026-05-09 03:20 47.41768 10.64929 33105 ft 510 kts 130°
2026-05-09 03:21 47.37544 10.73336 33115 ft 510 kts 130°
2026-05-09 03:21 47.33307 10.81741 33118 ft 510 kts 130°
2026-05-09 03:22 47.29065 10.90132 33125 ft 510 kts 130°
2026-05-09 03:22 47.24811 10.98506 33128 ft 510 kts 130°
2026-05-09 03:23 47.20563 11.06849 33140 ft 509 kts 130°
2026-05-09 03:23 47.16318 11.15164 33153 ft 508 kts 131°
2026-05-09 03:24 47.12063 11.23461 33143 ft 508 kts 131°
2026-05-09 03:24 47.07813 11.31738 33159 ft 508 kts 131°
2026-05-09 03:25 47.03565 11.40002 33140 ft 507 kts 131°
2026-05-09 03:25 46.99309 11.48251 33138 ft 507 kts 131°
2026-05-09 03:26 46.95050 11.56478 33143 ft 506 kts 131°
2026-05-09 03:26 46.90813 11.64626 33147 ft 506 kts 131°
2026-05-09 03:27 46.86541 11.72815 33140 ft 506 kts 131°
2026-05-09 03:27 46.82255 11.80998 33126 ft 507 kts 131°
2026-05-09 03:28 46.77972 11.89174 33123 ft 507 kts 131°
2026-05-09 03:28 46.73691 11.97321 33125 ft 505 kts 131°
2026-05-09 03:29 46.70102 12.04122 33137 ft 504 kts 131°
2026-05-09 03:29 46.65135 12.13523 33141 ft 503 kts 131°
2026-05-09 03:30 46.61552 12.20270 33205 ft 503 kts 131°
2026-05-09 03:30 46.57295 12.28269 33176 ft 504 kts 131°
2026-05-09 03:31 46.52999 12.36317 33154 ft 504 kts 131°
2026-05-09 03:31 46.48698 12.44358 33125 ft 504 kts 131°
2026-05-09 03:32 46.44402 12.52374 33133 ft 503 kts 131°
2026-05-09 03:32 46.40108 12.60359 33129 ft 502 kts 131°
2026-05-09 03:33 46.35811 12.68322 33125 ft 502 kts 131°
2026-05-09 03:33 46.31507 12.76268 33114 ft 501 kts 131°
2026-05-09 03:34 46.27196 12.84204 33111 ft 502 kts 131°
2026-05-09 03:34 46.22884 12.92141 33076 ft 502 kts 131°
2026-05-09 03:35 46.18591 13.00001 33096 ft 501 kts 131°
2026-05-09 03:35 46.14270 13.07895 33080 ft 501 kts 131°
2026-05-09 03:36 46.09949 13.15779 33093 ft 501 kts 131°
2026-05-09 03:36 46.05629 13.23643 33087 ft 501 kts 131°
2026-05-09 03:37 46.01286 13.31501 33081 ft 501 kts 131°
2026-05-09 03:37 45.96946 13.39349 33078 ft 502 kts 131°
2026-05-09 03:38 45.92582 13.47198 33079 ft 502 kts 131°
2026-05-09 03:38 45.88230 13.55025 33082 ft 502 kts 131°
2026-05-09 03:39 45.83863 13.62854 33076 ft 503 kts 131°
2026-05-09 03:39 45.79480 13.70684 33079 ft 503 kts 131°
2026-05-09 03:40 45.75093 13.78496 33088 ft 503 kts 131°
2026-05-09 03:40 45.70694 13.86304 33074 ft 503 kts 131°
2026-05-09 03:41 45.66296 13.94086 33089 ft 503 kts 131°
2026-05-09 03:41 45.61903 14.01854 33091 ft 503 kts 131°
2026-05-09 03:42 45.57503 14.09612 33102 ft 502 kts 131°
2026-05-09 03:42 45.53129 14.17306 33122 ft 502 kts 131°
2026-05-09 03:43 45.48714 14.25050 33098 ft 503 kts 131°
2026-05-09 03:43 45.44294 14.32780 33085 ft 503 kts 131°
2026-05-09 03:44 45.39870 14.40479 33097 ft 502 kts 131°
2026-05-09 03:44 45.35446 14.48161 33082 ft 502 kts 131°
2026-05-09 03:45 45.31019 14.55840 33074 ft 502 kts 131°
2026-05-09 03:45 45.26584 14.63507 33074 ft 503 kts 131°
2026-05-09 03:46 45.22141 14.71170 33077 ft 503 kts 131°
2026-05-09 03:46 45.17692 14.78812 33077 ft 502 kts 131°
2026-05-09 03:47 45.13245 14.86435 33088 ft 502 kts 131°
2026-05-09 03:47 45.08824 14.93997 33101 ft 502 kts 131°
2026-05-09 03:48 45.04377 15.01596 33108 ft 501 kts 131°
2026-05-09 03:48 44.99920 15.09179 33108 ft 501 kts 131°
2026-05-09 03:49 44.95454 15.16744 33100 ft 501 kts 131°
2026-05-09 03:49 44.90992 15.24293 33122 ft 500 kts 131°
2026-05-09 03:50 44.86531 15.31814 33123 ft 499 kts 131°
2026-05-09 03:50 44.82072 15.39311 33127 ft 499 kts 131°
2026-05-09 03:51 44.77604 15.46806 33110 ft 500 kts 131°
2026-05-09 03:51 44.73135 15.54301 33108 ft 500 kts 131°
2026-05-09 03:52 44.68656 15.61788 33092 ft 500 kts 132°
2026-05-09 03:52 44.64170 15.69237 33123 ft 499 kts 132°
2026-05-09 03:53 44.59690 15.76686 33106 ft 500 kts 132°
2026-05-09 03:53 44.55194 15.84138 33104 ft 500 kts 132°
2026-05-09 03:54 44.50687 15.91573 33104 ft 501 kts 132°
2026-05-09 03:54 44.46179 15.99004 33094 ft 501 kts 131°
2026-05-09 03:55 44.41671 16.06427 33090 ft 500 kts 132°
2026-05-09 03:55 44.37157 16.13822 33105 ft 499 kts 132°
2026-05-09 03:56 44.32647 16.21197 33113 ft 499 kts 132°
2026-05-09 03:56 44.28135 16.28551 33102 ft 499 kts 132°
2026-05-09 03:57 44.23618 16.35896 33095 ft 499 kts 132°
2026-05-09 03:57 44.19086 16.43241 33096 ft 499 kts 132°
2026-05-09 03:58 44.14558 16.50566 33105 ft 498 kts 132°
2026-05-09 03:58 44.10071 16.57820 33109 ft 497 kts 132°
2026-05-09 03:59 44.05550 16.65097 33103 ft 497 kts 132°
2026-05-09 03:59 44.01028 16.72373 33103 ft 497 kts 132°
2026-05-09 04:00 43.96498 16.79630 33097 ft 497 kts 133°
2026-05-09 04:00 43.91961 16.86869 33086 ft 497 kts 133°
2026-05-09 04:01 43.87429 16.94071 33107 ft 495 kts 133°
2026-05-09 04:01 43.82904 17.01253 33119 ft 494 kts 133°
2026-05-09 04:02 43.78392 17.08425 33100 ft 493 kts 133°
2026-05-09 04:02 43.73888 17.15573 33101 ft 493 kts 133°
2026-05-09 04:03 43.69372 17.22698 33095 ft 493 kts 133°
2026-05-09 04:03 43.64844 17.29801 33077 ft 492 kts 133°
2026-05-09 04:04 43.60327 17.36885 33084 ft 491 kts 133°
2026-05-09 04:04 43.55823 17.43954 33081 ft 490 kts 133°
2026-05-09 04:05 43.51316 17.51006 33077 ft 490 kts 133°
2026-05-09 04:05 43.46804 17.58031 33070 ft 489 kts 133°
2026-05-09 04:06 43.42287 17.65042 33067 ft 489 kts 133°
2026-05-09 04:06 43.37778 17.72046 33058 ft 489 kts 133°
2026-05-09 04:07 43.33293 17.78999 33053 ft 489 kts 133°
2026-05-09 04:07 43.28766 17.85983 33045 ft 489 kts 133°
2026-05-09 04:08 43.24232 17.92946 33048 ft 490 kts 134°
2026-05-09 04:08 43.19689 17.99909 33045 ft 490 kts 134°
2026-05-09 04:09 43.15156 18.06862 33037 ft 489 kts 133°
2026-05-09 04:09 43.10624 18.13803 33047 ft 489 kts 133°
2026-05-09 04:10 43.06086 18.20721 33052 ft 488 kts 133°
2026-05-09 04:10 43.01546 18.27628 33050 ft 488 kts 133°
2026-05-09 04:11 42.97006 18.34520 33050 ft 488 kts 134°
2026-05-09 04:11 42.92459 18.41407 33049 ft 488 kts 134°
2026-05-09 04:12 42.87906 18.48277 33061 ft 487 kts 134°
2026-05-09 04:12 42.83360 18.55121 33056 ft 487 kts 134°
2026-05-09 04:13 42.78823 18.61949 33063 ft 486 kts 134°
2026-05-09 04:13 42.74282 18.68763 33057 ft 486 kts 134°
2026-05-09 04:14 42.69735 18.75563 33056 ft 486 kts 134°
2026-05-09 04:14 42.65187 18.82347 33043 ft 485 kts 133°
2026-05-09 04:15 42.60639 18.89114 33062 ft 485 kts 133°
2026-05-09 04:15 42.56096 18.95864 33062 ft 484 kts 134°
2026-05-09 04:16 42.52324 19.01461 33066 ft 484 kts 134°
2026-05-09 04:16 42.47014 19.09310 33049 ft 483 kts 134°
2026-05-09 04:17 42.43236 19.14877 33047 ft 483 kts 134°
2026-05-09 04:17 42.38688 19.21567 33042 ft 483 kts 134°
2026-05-09 04:18 42.34150 19.28237 33057 ft 482 kts 134°
2026-05-09 04:18 42.29615 19.34897 33056 ft 481 kts 134°
2026-05-09 04:19 42.25081 19.41536 33064 ft 480 kts 134°
2026-05-09 04:19 42.20542 19.48150 33047 ft 480 kts 134°
2026-05-09 04:20 42.16004 19.54746 33050 ft 480 kts 134°
2026-05-09 04:20 42.11471 19.61330 33036 ft 479 kts 134°
2026-05-09 04:21 42.06936 19.67905 33038 ft 479 kts 134°
2026-05-09 04:22 42.00129 19.77738 33039 ft 479 kts 134°
2026-05-09 04:22 41.95593 19.84283 33025 ft 478 kts 135°
2026-05-09 04:23 41.91048 19.90822 33019 ft 479 kts 135°
2026-05-09 04:23 41.86499 19.97358 33024 ft 479 kts 135°
2026-05-09 04:24 41.81944 20.03877 33020 ft 479 kts 135°
2026-05-09 04:24 41.77376 20.10398 33025 ft 480 kts 135°
2026-05-09 04:25 41.72836 20.16872 33018 ft 480 kts 135°
2026-05-09 04:25 41.68256 20.23387 33028 ft 481 kts 135°
2026-05-09 04:26 41.63659 20.29895 33028 ft 481 kts 135°
2026-05-09 04:26 41.59060 20.36394 33034 ft 481 kts 135°
2026-05-09 04:27 41.54457 20.42890 33028 ft 481 kts 135°
2026-05-09 04:27 41.49849 20.49376 33030 ft 482 kts 135°
2026-05-09 04:28 41.45243 20.55862 33034 ft 482 kts 135°
2026-05-09 04:28 41.40635 20.62345 33044 ft 482 kts 135°
2026-05-09 04:29 41.36013 20.68816 33047 ft 482 kts 135°
2026-05-09 04:29 41.31391 20.75272 33040 ft 482 kts 136°
2026-05-09 04:30 41.26767 20.81719 33033 ft 482 kts 136°
2026-05-09 04:30 41.22134 20.88162 33037 ft 482 kts 136°
2026-05-09 04:31 41.17487 20.94595 33049 ft 482 kts 136°
2026-05-09 04:31 41.12841 21.01023 33052 ft 483 kts 136°
2026-05-09 04:32 41.08195 21.07447 33058 ft 483 kts 136°
2026-05-09 04:32 41.03544 21.13864 33063 ft 483 kts 136°
2026-05-09 04:33 40.98921 21.20232 33053 ft 483 kts 136°
2026-05-09 04:33 40.94258 21.26630 33057 ft 483 kts 136°
2026-05-09 04:34 40.89592 21.33018 33065 ft 483 kts 137°
2026-05-09 04:34 40.84882 21.39343 33064 ft 482 kts 138°
2026-05-09 04:35 40.80044 21.45474 33068 ft 482 kts 139°
2026-05-09 04:35 40.75172 21.51549 33073 ft 482 kts 139°
2026-05-09 04:36 40.70323 21.57655 33074 ft 482 kts 139°
2026-05-09 04:36 40.65488 21.63779 33078 ft 482 kts 139°
2026-05-09 04:37 40.60649 21.69894 33068 ft 482 kts 139°
2026-05-09 04:37 40.55802 21.75993 33067 ft 482 kts 139°
2026-05-09 04:38 40.50950 21.82071 33061 ft 482 kts 139°
2026-05-09 04:38 40.46093 21.88150 33062 ft 483 kts 139°
2026-05-09 04:39 40.41233 21.94233 33063 ft 483 kts 139°
2026-05-09 04:39 40.36364 22.00316 33065 ft 483 kts 140°
2026-05-09 04:40 40.31522 22.06337 33068 ft 483 kts 140°
2026-05-09 04:40 40.26638 22.12397 33068 ft 484 kts 140°
2026-05-09 04:41 40.21752 22.18456 33037 ft 484 kts 140°
2026-05-09 04:41 40.16857 22.24505 33043 ft 485 kts 140°
2026-05-09 04:42 40.11948 22.30565 33048 ft 486 kts 140°
2026-05-09 04:42 40.07028 22.36620 33042 ft 486 kts 140°
2026-05-09 04:43 40.02099 22.42673 33050 ft 486 kts 140°
2026-05-09 04:43 39.97165 22.48726 33043 ft 488 kts 141°
2026-05-09 04:44 39.92221 22.54785 33029 ft 488 kts 141°
2026-05-09 04:44 39.87260 22.60848 33033 ft 490 kts 141°
2026-05-09 04:45 39.82284 22.66904 33049 ft 491 kts 141°
2026-05-09 04:45 39.77296 22.72978 33052 ft 491 kts 141°
2026-05-09 04:46 39.72306 22.79044 33034 ft 491 kts 141°
2026-05-09 04:46 39.67306 22.85098 33045 ft 492 kts 141°
2026-05-09 04:47 39.62297 22.91146 33034 ft 492 kts 142°
2026-05-09 04:47 39.57276 22.97199 33043 ft 493 kts 142°
2026-05-09 04:48 39.52252 23.03253 33048 ft 494 kts 142°
2026-05-09 04:48 39.47255 23.09263 33056 ft 494 kts 141°
2026-05-09 04:49 39.42218 23.15301 33050 ft 493 kts 142°
2026-05-09 04:49 39.37173 23.21327 33026 ft 494 kts 142°
2026-05-09 04:50 39.32118 23.27364 33037 ft 496 kts 142°
2026-05-09 04:50 39.27043 23.33414 33042 ft 497 kts 142°
2026-05-09 04:51 39.21962 23.39462 33045 ft 497 kts 142°
2026-05-09 04:51 39.16871 23.45503 33044 ft 498 kts 142°
2026-05-09 04:52 39.11766 23.51539 33043 ft 498 kts 142°
2026-05-09 04:52 39.06652 23.57583 33031 ft 500 kts 143°
2026-05-09 04:53 39.01524 23.63632 33039 ft 501 kts 143°
2026-05-09 04:53 38.96379 23.69676 33045 ft 501 kts 143°
2026-05-09 04:54 38.91233 23.75722 33034 ft 502 kts 142°
2026-05-09 04:54 38.88697 23.78732 33057 ft 491 kts 142°
2026-05-09 04:54 38.86191 23.81706 33065 ft 494 kts 143°
2026-05-09 04:55 38.81040 23.87703 33056 ft 504 kts 143°
2026-05-09 04:55 38.75824 23.93740 33061 ft 506 kts 143°
2026-05-09 04:56 38.70612 23.99803 33067 ft 506 kts 143°
2026-05-09 04:56 38.65406 24.05875 33061 ft 506 kts 143°
2026-05-09 04:57 38.60231 24.11888 33048 ft 506 kts 143°
2026-05-09 04:57 38.54911 24.17517 33067 ft 492 kts 153°
2026-05-09 04:58 38.49084 24.22262 33064 ft 500 kts 154°
2026-05-09 04:58 38.43199 24.27022 33064 ft 501 kts 154°
2026-05-09 04:59 38.37307 24.31793 33064 ft 502 kts 154°
2026-05-09 04:59 38.31415 24.36559 33063 ft 502 kts 154°
2026-05-09 04:59 38.28468 24.38937 32796 ft 502 kts 153°
2026-05-09 05:00 38.25510 24.41319 31790 ft 507 kts 153°
2026-05-09 05:00 38.22508 24.43726 30905 ft 510 kts 153°
2026-05-09 05:00 38.19514 24.46130 30183 ft 508 kts 153°
2026-05-09 05:00 38.16522 24.48535 29116 ft 511 kts 153°
2026-05-09 05:01 38.16166 24.48822 28985 ft 511 kts 153°
2026-05-09 05:23 38.15799 24.49117 28819 ft 509 kts 153°
2026-05-09 05:23 38.12762 24.51549 27374 ft 520 kts 153°
2026-05-09 05:23 38.09719 24.53988 25943 ft 516 kts 152°
2026-05-09 05:24 38.06680 24.56426 24300 ft 518 kts 152°
2026-05-09 05:24 38.03646 24.58857 23051 ft 511 kts 152°
2026-05-09 05:24 38.00687 24.61233 22122 ft 495 kts 152°
2026-05-09 05:24 37.97819 24.63536 21166 ft 482 kts 152°
2026-05-09 05:25 37.95020 24.65780 20237 ft 470 kts 152°
2026-05-09 05:25 37.92287 24.67964 19333 ft 460 kts 152°
2026-05-09 05:25 37.86971 24.72198 17502 ft 444 kts 152°
2026-05-09 05:26 37.84375 24.74258 16652 ft 436 kts 152°
2026-05-09 05:26 37.81831 24.76276 15812 ft 428 kts 152°
2026-05-09 05:26 37.79353 24.78238 15011 ft 426 kts 152°
2026-05-09 05:26 37.76836 24.80227 14218 ft 427 kts 151°
2026-05-09 05:27 37.74284 24.82245 13391 ft 426 kts 151°
2026-05-09 05:27 37.71783 24.84224 12651 ft 423 kts 151°
2026-05-09 05:27 37.69336 24.86159 11942 ft 418 kts 151°
2026-05-09 05:27 37.66887 24.88097 11441 ft 409 kts 151°
2026-05-09 05:28 37.64537 24.89966 11312 ft 390 kts 152°
2026-05-09 05:28 37.62297 24.91745 11188 ft 372 kts 152°
2026-05-09 05:28 37.60148 24.93447 11071 ft 357 kts 152°
2026-05-09 05:28 37.58086 24.95076 10946 ft 344 kts 152°
2026-05-09 05:29 37.56092 24.96644 10826 ft 332 kts 153°
2026-05-09 05:29 37.54169 24.98156 10700 ft 320 kts 153°
2026-05-09 05:29 37.52310 24.99618 10387 ft 312 kts 153°
2026-05-09 05:29 37.50489 25.01047 10153 ft 307 kts 153°
2026-05-09 05:30 37.48686 25.02473 9967 ft 305 kts 150°
2026-05-09 05:30 37.47128 25.04301 9825 ft 310 kts 131°
2026-05-09 05:30 37.45899 25.06571 9385 ft 317 kts 126°
2026-05-09 05:30 37.44712 25.08887 9104 ft 313 kts 126°
2026-05-09 05:31 37.43543 25.11196 8737 ft 313 kts 126°
2026-05-09 05:31 37.42378 25.13502 8392 ft 311 kts 126°
2026-05-09 05:31 37.41217 25.15794 8054 ft 310 kts 126°
2026-05-09 05:31 37.40059 25.18070 7698 ft 308 kts 126°
2026-05-09 05:32 37.38908 25.20322 7219 ft 305 kts 126°
2026-05-09 05:32 37.37761 25.22561 6712 ft 304 kts 126°
2026-05-09 05:32 37.36622 25.24780 6224 ft 301 kts 126°
2026-05-09 05:32 37.35489 25.26984 5733 ft 298 kts 126°
2026-05-09 05:33 37.34377 25.29151 5403 ft 289 kts 125°
2026-05-09 05:33 37.33308 25.31296 4736 ft 294 kts 119°
2026-05-09 05:33 37.32845 25.33798 3938 ft 300 kts 86°
2026-05-09 05:33 37.33529 25.36212 3476 ft 290 kts 50°
2026-05-09 05:34 37.35021 25.37766 3050 ft 273 kts 18°
2026-05-09 05:34 37.36772 25.38183 2870 ft 246 kts 352°
2026-05-09 05:34 37.38369 25.37670 2428 ft 232 kts 331°
2026-05-09 05:34 37.39793 25.36859 1857 ft 216 kts 332°
2026-05-09 05:35 37.40952 25.35853 1397 ft 193 kts 303°
2026-05-09 05:35 37.41304 25.34384 1209 ft 165 kts 261°
2026-05-09 05:35 37.40921 25.33132 1286 ft 146 kts 232°
2026-05-09 05:35 37.40150 25.32365 1546 ft 141 kts 206°
2026-05-09 05:36 37.39180 25.32180 1816 ft 144 kts 181°
2026-05-09 05:36 37.38178 25.32271 2014 ft 145 kts 182°
2026-05-09 05:36 37.37171 25.32356 2077 ft 145 kts 182°
2026-05-09 05:36 37.36162 25.32441 2081 ft 145 kts 182°
2026-05-09 05:37 37.35152 25.32526 2083 ft 145 kts 182°
2026-05-09 05:37 37.34165 25.32757 2083 ft 152 kts 160°
2026-05-09 05:37 37.33435 25.33756 2077 ft 165 kts 112°
2026-05-09 05:37 37.33499 25.35178 2084 ft 168 kts 63°
2026-05-09 05:38 37.34066 25.36468 2084 ft 169 kts 58°
2026-05-09 05:38 37.34747 25.37642 2083 ft 164 kts 33°
2026-05-09 05:38 37.35779 25.38108 1984 ft 157 kts 355°
2026-05-09 05:38 37.36807 25.37793 1711 ft 150 kts 335°
2026-05-09 05:39 37.37780 25.37356 1487 ft 151 kts 336°
2026-05-09 05:39 37.38784 25.36911 1271 ft 152 kts 337°
2026-05-09 05:39 37.39774 25.36471 1064 ft 154 kts 339°
2026-05-09 05:39 37.40800 25.36015 844 ft 157 kts 341°
2026-05-09 05:40 37.41807 25.35569 630 ft 152 kts 342°
2026-05-09 05:40 37.42828 25.35122 450 ft 153 kts 343°
2026-05-09 05:40 37.43681 25.34752 404 ft 97 kts 339°
2026-05-09 05:40 37.44038 25.34592 407 ft 22 kts 341°
2026-05-09 05:41 37.44058 25.34584 406 ft 21 kts 341°
2026-05-09 07:04 37.44164 25.34538 406 ft 20 kts 340°
2026-05-09 07:04 37.44258 25.34453 405 ft 17 kts 309°
2026-05-09 07:05 37.44308 25.34467 405 ft 2 kts 117°
2026-05-09 07:05 37.44293 25.34477 406 ft 0 kts 161°
2026-05-09 07:10 37.44286 25.34480 405 ft 14 kts 161°
2026-05-09 07:11 37.43928 25.34644 410 ft 93 kts 160°
2026-05-09 07:11 37.43120 25.35008 409 ft 150 kts 160°
2026-05-09 07:11 37.42070 25.35472 938 ft 160 kts 162°
2026-05-09 07:11 37.41010 25.35923 1725 ft 163 kts 156°
2026-05-09 07:12 37.40204 25.36913 2386 ft 168 kts 116°
2026-05-09 07:12 37.40123 25.38434 2592 ft 190 kts 68°
2026-05-09 07:12 37.41006 25.39697 2753 ft 204 kts 19°
2026-05-09 07:12 37.42419 25.39795 2948 ft 214 kts 333°
2026-05-09 07:13 37.43540 25.38575 3200 ft 224 kts 294°
2026-05-09 07:13 37.44070 25.36655 3486 ft 244 kts 279°
2026-05-09 07:13 37.44348 25.34504 4060 ft 252 kts 272°
2026-05-09 07:13 37.43970 25.32377 4826 ft 256 kts 238°
2026-05-09 07:14 37.42629 25.30906 5585 ft 264 kts 205°
2026-05-09 07:14 37.40791 25.30663 6362 ft 277 kts 172°
2026-05-09 07:14 37.39053 25.31785 7048 ft 292 kts 139°
2026-05-09 07:14 37.37988 25.33993 7694 ft 305 kts 106°
2026-05-09 07:15 37.37958 25.36655 8328 ft 311 kts 73°
2026-05-09 07:15 37.38968 25.39034 8969 ft 311 kts 49°
2026-05-09 07:15 37.40208 25.41281 9641 ft 317 kts 62°
2026-05-09 07:15 37.40852 25.43956 10232 ft 326 kts 84°
2026-05-09 07:16 37.40642 25.46854 10384 ft 344 kts 110°
2026-05-09 07:16 37.39642 25.49671 10513 ft 363 kts 121°
2026-05-09 07:16 37.38480 25.52581 10629 ft 384 kts 111°
2026-05-09 07:16 37.37849 25.55914 10902 ft 398 kts 104°
2026-05-09 07:17 37.37054 25.59253 11433 ft 400 kts 113°
2026-05-09 07:17 37.35861 25.62420 12005 ft 401 kts 120°
2026-05-09 07:17 37.34574 25.65498 12538 ft 405 kts 118°
2026-05-09 07:17 37.33380 25.68773 13087 ft 409 kts 114°
2026-05-09 07:18 37.32429 25.72115 13619 ft 413 kts 108°
2026-05-09 07:18 37.31668 25.75608 14127 ft 417 kts 104°
2026-05-09 07:18 37.31023 25.79176 14568 ft 421 kts 103°
2026-05-09 07:18 37.30386 25.82779 14999 ft 425 kts 103°
2026-05-09 07:19 37.29741 25.86413 15430 ft 428 kts 103°
2026-05-09 07:19 37.29089 25.90080 15859 ft 432 kts 103°
2026-05-09 07:19 37.28431 25.93778 16278 ft 436 kts 103°
2026-05-09 07:19 37.27764 25.97512 16701 ft 440 kts 103°
2026-05-09 07:20 37.27091 26.01273 17125 ft 444 kts 103°
2026-05-09 07:20 37.26410 26.05069 17555 ft 448 kts 103°
2026-05-09 07:20 37.25721 26.08900 17993 ft 452 kts 103°
2026-05-09 07:20 37.25025 26.12764 18419 ft 456 kts 103°
2026-05-09 07:21 37.24322 26.16655 18801 ft 459 kts 103°
2026-05-09 07:21 37.23613 26.20573 19205 ft 462 kts 103°
2026-05-09 07:21 37.22897 26.24516 19606 ft 465 kts 103°
2026-05-09 07:21 37.22176 26.28481 20015 ft 467 kts 103°
2026-05-09 07:22 37.21450 26.32463 20415 ft 470 kts 103°
2026-05-09 07:22 37.20717 26.36473 20801 ft 473 kts 103°
2026-05-09 07:22 37.19979 26.40501 21170 ft 475 kts 103°
2026-05-09 07:22 37.19234 26.44555 21526 ft 478 kts 103°
2026-05-09 07:23 37.18484 26.48629 21867 ft 481 kts 103°
2026-05-09 07:23 37.17728 26.52726 22200 ft 484 kts 103°
2026-05-09 07:23 37.16966 26.56843 22516 ft 486 kts 103°
2026-05-09 07:23 37.16199 26.60978 22863 ft 488 kts 103°
2026-05-09 07:24 37.15426 26.65136 23192 ft 491 kts 103°
2026-05-09 07:24 37.14648 26.69308 23516 ft 493 kts 103°
2026-05-09 07:24 37.13864 26.73502 23804 ft 496 kts 103°
2026-05-09 07:24 37.13073 26.77719 24077 ft 498 kts 103°
2026-05-09 07:25 37.12279 26.81943 24359 ft 499 kts 103°
2026-05-09 07:25 37.11478 26.86190 24638 ft 501 kts 103°
2026-05-09 07:25 37.10674 26.90444 24953 ft 502 kts 103°
2026-05-09 07:25 37.09868 26.94694 25360 ft 501 kts 103°
2026-05-09 07:26 37.09062 26.98929 25776 ft 499 kts 103°
2026-05-09 07:26 37.08256 27.03149 26184 ft 498 kts 103°
2026-05-09 07:26 37.07449 27.07368 26597 ft 497 kts 103°
2026-05-09 07:26 37.06642 27.11568 27011 ft 496 kts 103°
2026-05-09 07:27 37.05833 27.15768 27426 ft 495 kts 103°
2026-05-09 07:27 37.05034 27.19905 27832 ft 494 kts 103°
2026-05-09 07:27 37.04225 27.24074 28290 ft 492 kts 103°
2026-05-09 07:27 37.03416 27.28233 28739 ft 491 kts 103°
2026-05-09 07:28 37.02607 27.32377 29182 ft 490 kts 103°
2026-05-09 07:28 37.01797 27.36510 29607 ft 489 kts 103°
2026-05-09 07:28 37.00986 27.40637 30045 ft 488 kts 104°
2026-05-09 07:28 37.00175 27.44751 30430 ft 487 kts 104°
2026-05-09 07:29 36.99361 27.48864 30761 ft 487 kts 104°
2026-05-09 07:29 36.98810 27.51640 30998 ft 486 kts 104°
2026-05-09 07:29 36.97992 27.55748 31319 ft 486 kts 104°
2026-05-09 07:29 36.97184 27.59793 31632 ft 487 kts 104°
2026-05-09 07:30 36.96359 27.63903 31944 ft 487 kts 104°
2026-05-09 07:30 36.95532 27.68009 32258 ft 487 kts 104°
2026-05-09 07:30 36.94701 27.72118 32576 ft 488 kts 104°
2026-05-09 07:30 36.93867 27.76230 32896 ft 488 kts 104°
2026-05-09 07:31 36.93029 27.80339 33081 ft 490 kts 104°
2026-05-09 07:31 36.92180 27.84492 33113 ft 497 kts 104°
2026-05-09 07:31 36.90434 27.92972 33109 ft 510 kts 104°
2026-05-09 07:32 36.88644 28.01577 33109 ft 513 kts 104°
2026-05-09 07:32 36.86832 28.10185 33107 ft 511 kts 104°
2026-05-09 07:33 36.83679 28.22848 33106 ft 509 kts 116°
2026-05-09 07:34 36.80541 28.30768 33106 ft 509 kts 114°
2026-05-09 07:34 36.78175 28.39087 33105 ft 509 kts 104°
2026-05-09 07:35 36.76445 28.47648 33120 ft 509 kts 103°
2026-05-09 07:35 36.74726 28.56198 33122 ft 508 kts 103°
2026-05-09 07:36 36.73001 28.64745 33127 ft 508 kts 104°
2026-05-09 07:36 36.71270 28.73278 33121 ft 507 kts 104°
2026-05-09 07:37 36.69535 28.81787 33122 ft 506 kts 104°
2026-05-09 07:37 36.67793 28.90290 33121 ft 506 kts 104°
2026-05-09 07:38 36.66044 28.98782 33122 ft 506 kts 104°
2026-05-09 07:38 36.64290 29.07253 33124 ft 505 kts 104°
2026-05-09 07:39 36.62528 29.15719 33129 ft 505 kts 104°
2026-05-09 07:39 36.60760 29.24172 33128 ft 504 kts 104°
2026-05-09 07:40 36.58995 29.32558 33136 ft 504 kts 104°
2026-05-09 07:40 36.57209 29.40998 33144 ft 504 kts 104°
2026-05-09 07:41 36.55415 29.49432 33147 ft 504 kts 105°
2026-05-09 07:41 36.53611 29.57860 33137 ft 504 kts 105°
2026-05-09 07:42 36.51799 29.66276 33139 ft 504 kts 105°
2026-05-09 07:42 36.49975 29.74695 33146 ft 504 kts 105°
2026-05-09 07:43 36.48141 29.83104 33143 ft 504 kts 105°
2026-05-09 07:43 36.46297 29.91506 33137 ft 504 kts 105°
2026-05-09 07:44 36.44439 29.99911 33133 ft 505 kts 105°
2026-05-09 07:44 36.42571 30.08304 33119 ft 504 kts 105°
2026-05-09 07:45 36.40691 30.16690 33130 ft 504 kts 105°
2026-05-09 07:45 36.38797 30.25071 33129 ft 504 kts 106°
2026-05-09 07:46 36.36892 30.33430 33123 ft 503 kts 106°
2026-05-09 07:46 36.34972 30.41778 33139 ft 503 kts 106°
2026-05-09 07:47 36.33038 30.50122 33130 ft 504 kts 106°
2026-05-09 07:47 36.31088 30.58458 33106 ft 503 kts 106°
2026-05-09 07:48 36.29038 30.66747 33102 ft 503 kts 113°
2026-05-09 07:48 36.25905 30.74477 33100 ft 502 kts 118°
2026-05-09 07:49 36.23108 30.82405 33083 ft 503 kts 109°
2026-05-09 07:49 36.21131 30.90654 33127 ft 503 kts 105°
2026-05-09 07:50 36.19248 30.99002 33108 ft 503 kts 105°
2026-05-09 07:50 36.17359 31.07348 33104 ft 504 kts 106°
2026-05-09 07:51 36.15462 31.15691 33101 ft 504 kts 106°
2026-05-09 07:51 36.13559 31.24030 33101 ft 504 kts 106°
2026-05-09 07:52 36.11647 31.32369 33088 ft 504 kts 106°
2026-05-09 07:52 36.09726 31.40714 33088 ft 505 kts 106°
2026-05-09 07:53 36.07796 31.49063 33089 ft 505 kts 106°
2026-05-09 07:53 36.05858 31.57404 33088 ft 505 kts 106°
2026-05-09 07:54 36.03911 31.65748 33090 ft 505 kts 107°
2026-05-09 07:54 36.01955 31.74091 33094 ft 506 kts 107°
2026-05-09 07:55 35.99990 31.82431 33100 ft 506 kts 107°
2026-05-09 07:55 35.98017 31.90768 33104 ft 506 kts 107°
2026-05-09 07:56 35.96035 31.99097 33106 ft 506 kts 107°
2026-05-09 07:56 35.94044 32.07421 33097 ft 506 kts 107°
2026-05-09 07:57 35.92043 32.15743 33104 ft 506 kts 107°
2026-05-09 07:57 35.90033 32.24056 33110 ft 506 kts 107°
2026-05-09 07:58 35.88013 32.32363 33113 ft 505 kts 107°
2026-05-09 07:58 35.85985 32.40657 33110 ft 505 kts 107°
2026-05-09 07:59 35.83945 32.48950 33109 ft 506 kts 108°
2026-05-09 07:59 35.81894 32.57238 33110 ft 506 kts 108°
2026-05-09 08:00 35.79830 32.65521 33106 ft 506 kts 108°
2026-05-09 08:00 35.77756 32.73793 33107 ft 506 kts 108°
2026-05-09 08:01 35.75680 32.82010 33110 ft 506 kts 108°
2026-05-09 08:01 35.73576 32.90281 33104 ft 506 kts 108°
2026-05-09 08:02 35.71459 32.98536 33105 ft 506 kts 108°
2026-05-09 08:02 35.69325 33.06785 33109 ft 506 kts 109°
2026-05-09 08:03 35.67174 33.15031 33113 ft 506 kts 109°
2026-05-09 08:03 35.64578 33.23036 33105 ft 503 kts 120°
2026-05-09 08:04 35.61287 33.30624 33105 ft 504 kts 117°
2026-05-09 08:04 35.58719 33.38643 33105 ft 506 kts 109°
2026-05-09 08:05 35.56646 33.46896 33108 ft 506 kts 108°
2026-05-09 08:05 35.54572 33.55152 33107 ft 506 kts 108°
2026-05-09 08:06 35.52493 33.63400 33109 ft 506 kts 108°
2026-05-09 08:06 35.50407 33.71647 33102 ft 506 kts 108°
2026-05-09 08:07 35.48316 33.79880 33101 ft 505 kts 108°
2026-05-09 08:07 35.46218 33.88110 33100 ft 505 kts 108°
2026-05-09 08:08 35.44114 33.96331 33089 ft 505 kts 109°
2026-05-09 08:08 35.42004 34.04541 33100 ft 505 kts 109°
2026-05-09 08:09 35.39887 34.12746 33104 ft 505 kts 109°
2026-05-09 08:09 35.37762 34.20945 33102 ft 504 kts 109°
2026-05-09 08:10 35.35632 34.29131 33108 ft 504 kts 109°
2026-05-09 08:10 35.33495 34.37305 33107 ft 504 kts 109°
2026-05-09 08:11 35.31349 34.45479 33098 ft 504 kts 109°
2026-05-09 08:11 35.29196 34.53640 33090 ft 503 kts 109°
2026-05-09 08:12 35.25952 34.65860 33099 ft 503 kts 109°
2026-05-09 08:12 35.23781 34.73992 33093 ft 503 kts 109°
2026-05-09 08:13 35.21599 34.82118 33095 ft 503 kts 109°
2026-05-09 08:13 35.19410 34.90228 33096 ft 502 kts 110°
2026-05-09 08:14 35.17211 34.98332 33096 ft 502 kts 110°
2026-05-09 08:14 35.15001 35.06426 33086 ft 502 kts 110°
2026-05-09 08:15 35.13157 35.13139 33089 ft 501 kts 110°
2026-05-09 08:15 35.10552 35.22566 33087 ft 501 kts 110°
2026-05-09 08:16 35.08691 35.29259 33076 ft 500 kts 110°
2026-05-09 08:16 35.06442 35.37295 33076 ft 500 kts 110°
2026-05-09 08:17 35.04181 35.45321 33079 ft 500 kts 110°
2026-05-09 08:17 35.01906 35.53334 33074 ft 496 kts 110°
2026-05-09 08:18 35.00785 35.57253 33069 ft 483 kts 111°
2026-05-09 08:18 34.99357 35.60946 33069 ft 484 kts 126°
2026-05-09 08:18 34.95001 35.67251 33077 ft 490 kts 135°
2026-05-09 08:19 34.90424 35.73413 33075 ft 491 kts 135°
2026-05-09 08:19 34.85830 35.79563 33065 ft 491 kts 135°
2026-05-09 08:20 34.81234 35.85714 33068 ft 491 kts 135°
2026-05-09 08:20 34.76645 35.91859 33068 ft 491 kts 135°
2026-05-09 08:21 34.72061 35.98007 33070 ft 491 kts 135°
2026-05-09 08:21 34.67469 36.04149 33078 ft 491 kts 135°
2026-05-09 08:22 34.62869 36.10287 33075 ft 491 kts 135°
2026-05-09 08:22 34.58270 36.16419 33074 ft 491 kts 135°
2026-05-09 08:23 34.53665 36.22535 33062 ft 491 kts 135°
2026-05-09 08:23 34.49052 36.28644 33049 ft 490 kts 135°
2026-05-09 08:24 34.46748 36.31692 32938 ft 491 kts 135°
2026-05-09 08:24 34.44443 36.34740 32676 ft 490 kts 135°
2026-05-09 08:24 34.42159 36.37762 32410 ft 482 kts 135°
2026-05-09 08:24 34.39920 36.40730 32152 ft 473 kts 135°
2026-05-09 08:25 34.37723 36.43642 31902 ft 464 kts 135°
2026-05-09 08:25 34.35564 36.46492 31648 ft 455 kts 136°
2026-05-09 08:25 34.33306 36.49096 31401 ft 441 kts 148°
2026-05-09 08:25 34.30709 36.50922 31150 ft 425 kts 162°
2026-05-09 08:26 34.27934 36.51923 30905 ft 411 kts 176°
2026-05-09 08:26 34.25128 36.52124 30680 ft 399 kts 189°
2026-05-09 08:26 34.22433 36.51573 30425 ft 389 kts 202°
2026-05-09 08:26 34.19960 36.50349 30186 ft 381 kts 214°
2026-05-09 08:27 34.17800 36.48567 29930 ft 373 kts 226°
2026-05-09 08:27 34.16025 36.46331 29546 ft 367 kts 236°
2026-05-09 08:27 34.14680 36.43726 28899 ft 365 kts 248°
2026-05-09 08:27 34.13834 36.40869 28491 ft 359 kts 258°
2026-05-09 08:28 34.13468 36.37883 27921 ft 359 kts 269°
2026-05-09 08:28 34.13587 36.34907 27615 ft 353 kts 278°
2026-05-09 08:28 34.14173 36.32038 27203 ft 352 kts 289°
2026-05-09 08:28 34.15223 36.29371 26805 ft 352 kts 300°
2026-05-09 08:29 34.16690 36.27007 26395 ft 353 kts 310°
2026-05-09 08:29 34.18525 36.25024 25986 ft 355 kts 319°
2026-05-09 08:29 34.20492 36.23221 25550 ft 354 kts 319°
2026-05-09 08:29 34.22345 36.21294 25148 ft 349 kts 311°
2026-05-09 08:30 34.23963 36.19133 24766 ft 345 kts 306°
2026-05-09 08:30 34.25343 36.16826 24392 ft 341 kts 300°
2026-05-09 08:30 34.26507 36.14343 23997 ft 338 kts 294°
2026-05-09 08:30 34.27424 36.11736 23572 ft 335 kts 288°
2026-05-09 08:31 34.28079 36.09041 23114 ft 333 kts 282°
2026-05-09 08:31 34.28470 36.06286 22672 ft 332 kts 276°
2026-05-09 08:31 34.28620 36.03512 22259 ft 330 kts 272°
2026-05-09 08:31 34.28704 36.00748 21851 ft 328 kts 272°
2026-05-09 08:32 34.28786 35.97995 21462 ft 327 kts 272°
2026-05-09 08:32 34.28896 35.95260 21070 ft 325 kts 273°
2026-05-09 08:32 34.29150 35.89830 20299 ft 322 kts 273°
2026-05-09 08:33 34.29279 35.87136 19922 ft 320 kts 273°
2026-05-09 08:33 34.29406 35.84456 19534 ft 319 kts 273°
2026-05-09 08:33 34.29529 35.81787 19170 ft 317 kts 273°
2026-05-09 08:33 34.29646 35.79132 18803 ft 316 kts 273°
2026-05-09 08:34 34.29760 35.76488 18445 ft 314 kts 273°
2026-05-09 08:34 34.29875 35.73862 17953 ft 311 kts 273°
2026-05-09 08:34 34.29910 35.71262 17255 ft 309 kts 264°
2026-05-09 08:34 34.29448 35.68737 16562 ft 308 kts 250°
2026-05-09 08:35 34.28525 35.66401 15901 ft 308 kts 244°
2026-05-09 08:35 34.27542 35.64098 15147 ft 310 kts 243°
2026-05-09 08:35 34.26552 35.61767 14366 ft 313 kts 243°
2026-05-09 08:35 34.25556 35.59415 13554 ft 315 kts 243°
2026-05-09 08:36 34.24554 35.57050 12698 ft 318 kts 243°
2026-05-09 08:36 34.23543 35.54661 11842 ft 320 kts 243°
2026-05-09 08:36 34.22529 35.52270 11014 ft 320 kts 243°
2026-05-09 08:36 34.21509 35.49873 10239 ft 321 kts 243°
2026-05-09 08:37 34.20497 35.47493 9593 ft 316 kts 243°
2026-05-09 08:37 34.19509 35.45166 9051 ft 307 kts 243°
2026-05-09 08:37 34.18548 35.42904 8530 ft 299 kts 243°
2026-05-09 08:37 34.17413 35.40864 8022 ft 290 kts 222°
2026-05-09 08:38 34.15720 35.39649 7537 ft 282 kts 196°
2026-05-09 08:38 34.13795 35.39485 7054 ft 278 kts 171°
2026-05-09 08:38 34.11935 35.40033 6573 ft 273 kts 166°
2026-05-09 08:38 34.11063 35.40318 6334 ft 271 kts 166°
2026-05-09 08:47 34.09376 35.40857 5969 ft 261 kts 169°
2026-05-09 08:47 34.07598 35.41323 5435 ft 261 kts 169°
2026-05-09 08:47 34.05839 35.41800 4971 ft 257 kts 168°
2026-05-09 08:48 34.04113 35.42284 4574 ft 251 kts 168°
2026-05-09 08:48 34.02424 35.42757 4115 ft 248 kts 168°
2026-05-09 08:48 34.00732 35.43229 3480 ft 253 kts 167°
2026-05-09 08:48 33.99027 35.43705 3032 ft 248 kts 167°
2026-05-09 08:49 33.97377 35.44165 2698 ft 240 kts 167°
2026-05-09 08:49 33.95769 35.44614 2381 ft 232 kts 167°
2026-05-09 08:49 33.94233 35.45042 2106 ft 220 kts 167°
2026-05-09 08:49 33.92791 35.45444 1808 ft 205 kts 166°
2026-05-09 08:50 33.91467 35.45812 1546 ft 186 kts 166°
2026-05-09 08:50 33.90273 35.46145 1340 ft 167 kts 167°
2026-05-09 08:50 33.89173 35.46452 1105 ft 159 kts 168°
2026-05-09 08:50 33.88105 35.46749 902 ft 155 kts 168°
2026-05-09 08:51 33.87056 35.47041 698 ft 155 kts 167°
2026-05-09 08:51 33.86012 35.47332 499 ft 154 kts 168°
2026-05-09 08:51 33.84973 35.47620 294 ft 154 kts 168°
2026-05-09 08:51 33.83933 35.47909 87 ft 153 kts 168°
2026-05-09 08:52 33.82938 35.48184 28 ft 128 kts 166°
2026-05-09 08:52 33.82237 35.48381 34 ft 79 kts 167°
2026-05-09 08:52 33.81866 35.48481 36 ft 38 kts 167°
2026-05-09 08:52 33.81512 35.48577 43 ft 86 kts 166°
2026-05-09 08:53 33.80692 35.48804 29 ft 155 kts 166°
2026-05-09 08:53 33.79649 35.49139 739 ft 149 kts 163°
2026-05-09 08:53 33.78649 35.49474 1510 ft 154 kts 163°
2026-05-09 08:53 33.78247 35.49707 1636 ft 167 kts 136°